Location: Acts Church of Fort Worth
(32.6786°N, 97.2668°W)
Time: 22:58:33
(UTC+00:00)

Cosmos 967 Rocket - Pass Details

Date: 18 January 2026
Orbit: 941 x 995 km, 65.8° (Epoch: 13 February)

Event Time Altitude Azimuth Distance (km) Brightness Sun altitude
Rises 02:06:30 0° 332° (NNW) 3,713 7.8 -28.8°
Reaches altitude 10° 02:09:06 10° 331° (NNW) 2,760 7.1 -29.4°
Maximum altitude 02:15:35 82° 245° (WSW) 1,002 4.5 -30.7°
Enters shadow 02:15:52 79° 205° (SSW) 1,008 4.5 -30.8°
